TimeCET,TemperatureF,Dew PointF,Humidity,Sea Level PressureIn,VisibilityMPH,Wind Direction,Wind SpeedMPH,Gust SpeedMPH,PrecipitationIn,Events,Conditions,WindDirDegrees,DateUTC
12:00 AM,59.0,55.4,88,29.83,6.2,NE,8.1,-,N/A,Rain,Rain,50,2012-11-16 23:00:00
12:30 AM,59.0,55.4,88,29.83,6.2,NNE,6.9,-,N/A,,Light Drizzle,20,2012-11-16 23:30:00
1:00 AM,59.0,55.4,88,29.83,6.2,ENE,8.1,-,N/A,Rain,Rain,60,2012-11-17 00:00:00
4:30 AM,60.8,57.2,88,29.77,6.2,SSE,10.4,-,N/A,,Scattered Clouds,160,2012-11-17 03:30:00
5:00 AM,60.8,57.2,88,29.74,6.2,South,6.9,-,N/A,,Scattered Clouds,180,2012-11-17 04:00:00
5:30 AM,60.8,57.2,88,29.74,6.2,South,9.2,-,N/A,,Mostly Cloudy,170,2012-11-17 04:30:00
6:00 AM,60.8,57.2,88,29.74,6.2,South,10.4,-,N/A,,Scattered Clouds,180,2012-11-17 05:00:00
6:30 AM,60.8,57.2,88,29.74,6.2,South,6.9,-,N/A,,Mostly Cloudy,180,2012-11-17 05:30:00
7:00 AM,60.8,55.4,82,29.74,6.2,South,8.1,-,N/A,,Scattered Clouds,180,2012-11-17 06:00:00
7:30 AM,59.0,57.2,94,29.74,6.2,South,9.2,-,N/A,,Scattered Clouds,180,2012-11-17 06:30:00
8:00 AM,59.0,57.2,94,29.74,6.2,South,9.2,-,N/A,,Partly Cloudy,170,2012-11-17 07:00:00
8:30 AM,59.0,57.2,94,29.74,6.2,South,3.5,-,N/A,,Partly Cloudy,190,2012-11-17 07:30:00
9:00 AM,59.0,57.2,94,29.77,6.2,South,4.6,-,N/A,,Partly Cloudy,180,2012-11-17 08:00:00
9:30 AM,60.8,57.2,88,29.77,6.2,SSW,1.2,-,N/A,,Partly Cloudy,200,2012-11-17 08:30:00
10:00 AM,60.8,57.2,88,29.77,6.2,South,8.1,-,N/A,,Partly Cloudy,180,2012-11-17 09:00:00
10:30 AM,64.4,59.0,83,29.77,6.2,South,5.8,-,N/A,,Partly Cloudy,180,2012-11-17 09:30:00
11:00 AM,64.4,59.0,83,29.77,6.2,South,9.2,-,N/A,,Partly Cloudy,170,2012-11-17 10:00:00
11:30 AM,66.2,57.2,73,29.74,6.2,South,10.4,-,N/A,,Partly Cloudy,190,2012-11-17 10:30:00
12:00 PM,66.2,57.2,73,29.74,6.2,South,10.4,-,N/A,,Partly Cloudy,190,2012-11-17 11:00:00
12:30 PM,66.2,57.2,73,29.74,6.2,SSW,12.7,24.2,N/A,,Scattered Clouds,200,2012-11-17 11:30:00
1:00 PM,64.4,57.2,77,29.71,6.2,SSW,10.4,-,N/A,,Scattered Clouds,210,2012-11-17 12:00:00
1:30 PM,66.2,59.0,78,29.71,6.2,South,10.4,-,N/A,,Scattered Clouds,180,2012-11-17 12:30:00
2:00 PM,68.0,57.2,68,29.68,6.2,South,12.7,-,N/A,,Partly Cloudy,170,2012-11-17 13:00:00
2:30 PM,66.2,59.0,78,29.68,6.2,South,13.8,-,N/A,,Partly Cloudy,170,2012-11-17 13:30:00
3:00 PM,68.0,53.6,60,29.65,6.2,SW,17.3,-,N/A,,Scattered Clouds,220,2012-11-17 14:00:00
3:30 PM,64.4,57.2,77,29.65,6.2,South,17.3,-,N/A,,Scattered Clouds,170,2012-11-17 14:30:00
4:00 PM,62.6,57.2,82,29.65,3.7,South,15.0,-,N/A,Rain,Rain Showers,180,2012-11-17 15:00:00
4:13 PM,62.6,57.2,82,29.65,6.2,South,17.3,-,N/A,,Scattered Clouds,170,2012-11-17 15:13:00
4:30 PM,64.4,59.0,83,29.65,6.2,South,15.0,-,N/A,,Scattered Clouds,170,2012-11-17 15:30:00
5:00 PM,62.6,57.2,82,29.65,6.2,SSE,10.4,-,N/A,,Scattered Clouds,160,2012-11-17 16:00:00
5:30 PM,60.8,57.2,88,29.65,6.2,SSE,12.7,-,N/A,,Scattered Clouds,160,2012-11-17 16:30:00
6:00 PM,60.8,57.2,88,29.65,6.2,SSE,12.7,-,N/A,,Scattered Clouds,160,2012-11-17 17:00:00
6:30 PM,60.8,57.2,88,29.65,3.1,SSE,10.4,-,N/A,Rain,Rain Showers,150,2012-11-17 17:30:00
7:00 PM,60.8,57.2,88,29.62,6.2,SSE,13.8,-,N/A,,Scattered Clouds,160,2012-11-17 18:00:00
7:30 PM,60.8,57.2,88,29.62,6.2,SSE,12.7,-,N/A,,Scattered Clouds,160,2012-11-17 18:30:00
8:00 PM,60.8,57.2,88,29.62,6.2,SSE,12.7,-,N/A,,Scattered Clouds,150,2012-11-17 19:00:00
8:30 PM,60.8,57.2,88,29.62,2.5,South,15.0,-,N/A,Rain,Rain Showers,170,2012-11-17 19:30:00
9:00 PM,59.0,57.2,94,29.62,6.2,SSE,16.1,-,N/A,,Scattered Clouds,160,2012-11-17 20:00:00
9:30 PM,60.8,57.2,88,29.62,3.7,South,10.4,-,N/A,Rain,Rain Showers,170,2012-11-17 20:30:00
10:00 PM,60.8,57.2,88,29.62,6.2,South,9.2,-,N/A,,Scattered Clouds,170,2012-11-17 21:00:00
10:30 PM,60.8,57.2,88,29.62,6.2,SSE,10.4,-,N/A,,Scattered Clouds,160,2012-11-17 21:30:00
11:30 PM,59.0,57.2,94,29.62,6.2,SSE,9.2,-,N/A,,Scattered Clouds,150,2012-11-17 22:30:00